Regional Weather Roundup
Issued by NWS

Home | Current Version | Previous Version | Graphics & Text | Print | Product List | Glossary On
Versions: 1 2 3 4 5 6 7 8 9 10 11 12 13 14 15 16 17 18 19 20 21 22 23 24 25 26 27 28 29 30 31 32 33 34 35 36 37 38 39 40 41 42 43 44 45 46 47 48 49 50
000
ASUS43 KBIS 210020
RWRND

NORTH DAKOTA REGIONAL WEATHER ROUNDUP
NATIONAL WEATHER SERVICE BISMARCK ND
700 PM CDT SAT SEP 20 2014

NOTE: "FAIR" INDICATES FEW OR NO CLOUDS BELOW 12,000 FEET WITH NO
SIGNIFICANT WEATHER AND/OR OBSTRUCTIONS TO VISIBILITY.


NDZ001>003-009>011-017-210100-
NORTHWEST NORTH DAKOTA

CITY           SKY/WX    TMP DP  RH WIND       PRES   REMARKS
WILLISTON      CLEAR     69  34  27 NW18G28   30.10R
6HR MIN TEMP:  69; 6HR MAX TEMP:  74;

MINOT          CLEAR     67  37  33 NW22G33   29.99R
MINOT AFB      CLEAR     67  40  38 NW22G33   29.98R
$$

NDZ018>021-031>035-040>046-210100-
SOUTHWEST NORTH DAKOTA

CITY           SKY/WX    TMP DP  RH WIND       PRES   REMARKS
BISMARCK       CLEAR     69  39  33 NW17G25   30.03R
6HR MIN TEMP:  69; 6HR MAX TEMP:  74;

DICKINSON      PTCLDY    67  35  30 NW16G24   30.10R
GARRISON         N/A     68  38  33 NW23G31   30.02R
6HR MIN TEMP:  68; 6HR MAX TEMP:  73;

HETTINGER ARPT CLEAR     68  34  28 NW20G28   30.13R
$$

NDZ004>008-012>016-024-026-027-054-210100-
NORTHEAST NORTH DAKOTA

CITY           SKY/WX    TMP DP  RH WIND       PRES   REMARKS
GRAND FORKS    MOCLDY    61  50  67 NW7       29.84R
GRND FRKS AFB  PTCLDY    61  52  71 N9        29.85R
DEVILS LAKE    PTCLDY    64  43  45 NW17G30   29.89R
$$

NDZ022-023-025-028>030-036>039-047>053-210100-
SOUTHEAST NORTH DAKOTA

CITY           SKY/WX    TMP DP  RH WIND       PRES   REMARKS
FARGO          CLEAR     65  52  62 NW7       29.84S
6HR MIN TEMP:  58; 6HR MAX TEMP:  70; 6HR PCP:  0.07;

JAMESTOWN      PTCLDY    65  41  41 NW18G28   29.92R
$$




USA.gov is the U.S. government's official web portal to all federal, state and local government web resources and services.